Location: Newark
(21.1200°N, 73.4000°E)
Time: 14:14:33
(UTC+00:00)

Courier 1B Rocket - Pass Details

Date: 19 January 2020
Orbit: 920 x 1202 km, 28.2° (Epoch: 25 February)

Event Time Altitude Azimuth Distance (km) Brightness Sun altitude
Rises 11:32:30 0° 286° (WNW) 3,611 8.7 15.0°
Reaches altitude 10° 11:35:18 10° 292° (WNW) 2,640 7.9 14.5°
Maximum altitude 11:41:18 45° 4° (N) 1,237 5.5 13.2°
Drops below altitude 10° 11:47:14 10° 76° (ENE) 2,608 6.7 12.0°
Sets 11:49:58 0° 83° (E) 3,563 7.4 11.5°
